Regional Weather Roundup
Issued by NWS

Home | Current Version | Previous Version | Text Only | Print | Product List | Glossary Off
Versions: 1 2 3 4 5 6 7 8 9 10 11 12 13 14 15 16 17 18 19 20 21 22 23 24 25 26 27 28 29 30 31 32 33 34 35 36 37 38 39 40 41 42 43 44 45 46 47 48 49 50

000
ASUS43 KDTX 252210
RWRMI
MICHIGAN HOURLY REGIONAL WEATHER ROUNDUP
NATIONAL WEATHER SERVICE DETROIT/PONTIAC MI
600 PM EDT MON SEP 25 2017

NOTE: "FAIR" INDICATES FEW OR NO CLOUDS BELOW 12,000 FEET WITH NO
SIGNIFICANT WEATHER AND/OR OBSTRUCTION TO VISIBILITY.

MIZ047>049-052>055-059>063-066>070-074>076-081>083-252300-
SOUTHEAST LOWER MICHIGAN

CITY           SKY/WX    TMP DP  RH WIND       PRES   REMARKS
ADRIAN         MOSUNNY   88  59  37 S6        29.98F
ALMA           SUNNY     86  49  26 S5        29.97F
ANN ARBOR      SUNNY     87  61  41 E8        29.98S
BAD AXE        MOSUNNY   82  63  51 SE5       30.00S
CARO           MOSUNNY   87  62  42 SE3       29.97F
DETROIT CITY   SUNNY     85  67  54 E9        29.98F
DETROIT        MOSUNNY   87  63  44 S8        29.99S
FLINT          MOSUNNY   87  63  44 CALM      29.98S
GROSSE ILE     SUNNY     81  67  63 S5        29.98S
HILLSDALE      SUNNY     86  55  35 S5        29.99F
HOWELL         SUNNY     88  57  34 SE6       29.98F

CITY           SKY/WX    TMP DP  RH WIND       PRES   REMARKS
JACKSON        SUNNY     88  56  33 SE7       29.98S
LAMBERTVILLE   MOSUNNY   83  65  53 E3        29.98S
LANSING        SUNNY     88  57  34 S3        29.97F
LAPEER         CLOUDY    87  62  42 SE3       29.99F
MASON          SUNNY     87  59  38 CALM      29.98S
MONROE         MOSUNNY   82  62  49 SE6       29.98S
MT. CLEMENS    PTSUNNY   84  69  59 SE6       29.97F
PONTIAC        MOSUNNY   87  60  40 SE7       29.98S
PORT HOPE        N/A     74  68  81 SE8       29.98F
PORT HURON     MOSUNNY   86  66  51 NE6       29.99S
TRI CITIES     MOSUNNY   89  61  38 VRB3      29.97F
MIDLAND        FAIR      88  59  37 CALM      29.96F
TROY           SUNNY     89  61  39 SE5       30.00S
SAGINAW HB     MOSUNNY   88  63  42 NE9       29.96F
$$
MIZ043>046-050>051-056>058-064>065-071>073-077>080-252300-
SOUTHWEST LOWER MICHIGAN

CITY           SKY/WX    TMP DP  RH WIND       PRES   REMARKS
BATTLE CREEK   SUNNY     89  54  30 S5        29.98F
BENTON HARBOR  SUNNY     87  55  33 SE3       29.95F
BIG RAPIDS     MOSUNNY   87  45  22 S6        29.97S
COLDWATER      SUNNY     87  53  31 S3        29.99S
FREMONT        FAIR      89  53  28 S6        29.95F
HOLLAND        MOSUNNY   88  55  32 S12       29.96F
GRAND RAPIDS   PTSUNNY   87  54  32 SW5       29.97F
IONIA          FAIR      88  51  27 SW3       29.96F
KALAMAZOO      SUNNY     88  49  25 CALM      29.97F
LUDINGTON      SUNNY     79  61  54 W3        29.95S
MARSHALL       SUNNY     87  57  36 S3        29.97F
MOUNT PLEASANT MOSUNNY   89  51  27 CALM      29.97S
MUSKEGON       MOSUNNY   86  57  37 S7        29.95F
SOUTH HAVEN    MOSUNNY   86  49  27 CALM      29.96S
$$
MIZ016>042-252300-
NORTHERN LOWER MICHIGAN

CITY           SKY/WX    TMP DP  RH WIND       PRES   REMARKS
ALPENA         MOSUNNY   81  70  69 E6        29.98F
BEAVER ISLAND  SUNNY     82  58  43 CALM      29.96S
BELLAIRE       SUNNY     86  58  38 NW3       29.95S
CADILLAC       SUNNY     88  48  24 S7        29.99R
CHARLEVOIX     SUNNY     78  62  57 CALM      29.99S
FRANKFORT      SUNNY     80  62  53 W3        29.95S
GAYLORD        SUNNY     85  52  32 SW6       29.99F
GRAYLING       CLOUDY    86  49  27 S8        29.99F
HARBOR SPRINGS SUNNY     81  60  50 CALM      29.96S
HOUGHTON LAKE  CLOUDY    85  56  37 S6        30.00S
OSCODA         PTSUNNY   78  64  62 S9        29.99S
PELLSTON       SUNNY     88  55  32 W5        29.97S
ROGERS CITY    PTSUNNY   77  66  70 N5        29.98S
TRAVERSE CITY  MOSUNNY   85  61  44 NE9       29.93S
$$
MIZ007>008-015-252300-
EASTERN UPPER MICHIGAN

CITY           SKY/WX    TMP DP  RH WIND       PRES   REMARKS
KINROSS        SUNNY     84  63  49 SW5       29.97S
MACKINAC ISLAN SUNNY     79  62  56 SE6       29.97S
NEWBERRY       SUNNY     78  65  63 S8        29.96S
S. S. MARIE    MOSUNNY   84  64  50 SW6       29.95S
MUNISING         N/A     69  66  90 N8        29.94S
$$
MIZ004>006-011>014-085-252300-
CENTRAL UPPER MICHIGAN

CITY           SKY/WX    TMP DP  RH WIND       PRES   REMARKS
MANISTIQUE     SUNNY     72  65  80 S7        29.95S
MENOMINEE      SUNNY     80  63  55 S10       29.92F
SAWYER-GWINN   PTSUNNY   70  63  78 NE15      29.94F
$$
MIZ001>003-009>011-084-252300-
WESTERN UPPER MICHIGAN

CITY           SKY/WX    TMP DP  RH WIND       PRES   REMARKS
IRON MOUNTAIN  MOSUNNY   85  61  44 S10       29.91R
HOUGHTON       MOSUNNY   66  59  78 NE10      29.96R
COPPER HARBOR    N/A     62  56  80 NE8       29.98R
IRONWOOD       CLOUDY    60  57  89 N7        29.99R
$$

ABBREVIATIONS USED IN REMARKS
   TC - TEMPERATURE IN CELSIUS
  WCI - WIND CHILL INDEX
   HX - HEAT INDEX
  VSB - VISIBILITY





USA.gov is the U.S. government's official web portal to all federal, state and local government web resources and services.